Location: *
(48.8780°N, 19.2358°E)
Time: 03:40:43
(UTC+00:00)

Gbstr 26 Del rocket - Pass Details

Date: 18 October 2019
Orbit: 493 x 1264 km, 51.8° (Epoch: 17 November)

Event Time Altitude Azimuth Distance (km) Brightness Sun altitude
Rises 17:03:39 0° 289° (WNW) 3,311 8.3 -13.1°
Reaches altitude 10° 17:05:54 10° 290° (WNW) 2,487 7.4 -13.5°
Maximum altitude 17:11:52 89° 17° (NNE) 998 4.0 -14.4°
Enters shadow 17:17:14 19° 111° (ESE) 2,332 5.4 -15.3°
